Content
SEND FEEDBACK

Daily
Averages
Monthly
Summary
Reunion

ST.-DENIS, REUNION


Home > Africa > Reunion
Elevation: 82 feet     Latitude: 20 53S     Longitude: 055 31E

WEATHER
 
SELECT A DAY
Number of Records: 230,734;   Date Range: 7/1/96 - 9/20/14
 
SHARE

PRINT THIS DATA

[ ← Previous Day ]
WEATHER ALMANAC - NOVEMBER 16, 2013
[ Next Day → ]
[ °C ]   °F
Weather ElementAverageHighLow
Temperature78.2 °F84.2 °F (2:00 pm)71.6 °F (11:30 pm)
Dewpoint69 °F71.6 °F (9:30 am)66 °F (6:00 am)
Humidity71.4 %83 % (12:00 am)53 % (8:00 am)
Barometer30.00 in30.04 in (12:00 am)29.95 in (2:00 pm)
Wind Speed12.4 mph21.9 mph (2:00 am)
Weather ElementAverage
Visibility7.3 mi
Wind DirectionESE (107.3 °)

Weather ElementTotal
Precipitation---
Cooling Degree Days12.9 (Base 65)
Growing Degree Days27.9 (Base 50)
Averaged from 66 records on November 16, 2013
WEATHER CONDITIONS BREAKOUT
WIND DIRECTION BREAKOUT
WEATHER BY HOUR - NOVEMBER 16, 2013
[ °C ]   °F
Local TimeTemperatureDewpointHumidityBarometerVisibilityWind DirectionWind SpeedGust SpeedPrecipitationEventsConditions
12:00 AM75.2 °F69.8 °F83 %30.04 in6.2 miESE (110°)11.5 mphPartly Cloudy
12:30 AM75.2 °F68.0 °F78 %30.04 in6.2 miESE (120°)12.7 mph
1:00 AM75.2 °F68.0 °F78 %30.01 in6.2 miESE (110°)15.0 mph
1:30 AM75.2 °F66.2 °F73 %30.01 in6.2 miEast (100°)13.8 mph
2:00 AM76.0 °F68.0 °F70 %30.01 in28.0 miEast (100°)21.9 mphClear
2:00 AM75.2 °F68.0 °F78 %30.01 in6.2 miEast (100°)21.9 mph
2:30 AM75.2 °F68.0 °F78 %30.01 in6.2 miESE (110°)16.1 mph
3:00 AM75.2 °F68.0 °F78 %30.01 in6.2 miESE (110°)17.3 mph
3:00 AM75.0 °F68.0 °F72 %30.01 in22.0 miESE (110°)17.3 mphClear
3:30 AM75.2 °F66.2 °F73 %30.01 in6.2 miSE (130°)18.4 mph
4:00 AM75.0 °F67.0 °F69 %30.01 in37.0 miSE (130°)12.7 mphClear
4:00 AM75.2 °F66.2 °F73 %30.01 in6.2 miSE (130°)12.7 mph
4:30 AM75.2 °F66.2 °F73 %29.98 in6.2 miESE (120°)13.8 mph
5:00 AM75.0 °F67.0 °F69 %30.01 in7.0 miESE (120°)13.8 mphScattered Clouds
5:00 AM75.2 °F66.2 °F73 %30.01 in6.2 miESE (120°)13.8 mphPartly Cloudy
5:30 AM75.2 °F66.2 °F73 %30.01 in6.2 miESE (110°)11.5 mphPartly Cloudy
6:00 AM73.4 °F66.2 °F78 %30.01 in6.2 miESE (110°)10.4 mphPartly Cloudy
6:00 AM74.0 °F66.0 °F69 %30.01 in7.0 miESE (110°)10.4 mphScattered Clouds
7:00 AM78.8 °F66.2 °F65 %30.01 in6.2 miESE (120°)15.0 mphScattered Clouds
7:30 AM78.8 °F68.0 °F69 %30.01 in6.2 miESE (110°)16.1 mphScattered Clouds
8:00 AM81.0 °F67.0 °F53 %30.03 in7.0 miESE (120°)17.3 mphScattered Clouds
8:00 AM80.6 °F66.2 °F61 %30.01 in6.2 miESE (120°)17.3 mphPartly Cloudy
8:30 AM82.4 °F68.0 °F62 %30.01 in6.2 miESE (110°)18.4 mphPartly Cloudy
9:00 AM82.0 °F69.0 °F57 %30.03 in7.0 miEast (80°)20.7 mphScattered Clouds
9:00 AM82.4 °F69.8 °F66 %30.01 in6.2 miEast (80°)20.7 mphPartly Cloudy
9:30 AM82.4 °F71.6 °F70 %30.01 in6.2 miEast (80°)21.9 mphPartly Cloudy
10:00 AM82.0 °F71.0 °F62 %30.02 in7.0 miEast (80°)20.7 mphScattered Clouds
10:00 AM82.4 °F71.6 °F70 %30.01 in6.2 miEast (80°)20.7 mphPartly Cloudy
10:30 AM82.4 °F71.6 °F70 %30.01 in6.2 miEast (80°)20.7 mphPartly Cloudy
11:00 AM83.0 °F70.0 °F57 %30.01 in7.0 miEast (80°)19.6 mphScattered Clouds
11:00 AM82.4 °F69.8 °F66 %30.01 in6.2 miEast (80°)19.6 mphPartly Cloudy
11:30 AM82.4 °F69.8 °F66 %30.01 in6.2 miEast (80°)19.6 mphPartly Cloudy
12:00 PM82.4 °F71.6 °F70 %30.01 in6.2 miEast (80°)18.4 mphPartly Cloudy
12:00 PM83.0 °F71.0 °F58 %30.01 in7.0 miEast (80°)18.4 mphScattered Clouds
12:30 PM82.4 °F69.8 °F66 %29.98 in6.2 miENE (70°)17.3 mphPartly Cloudy
1:00 PM82.4 °F69.8 °F66 %29.98 in6.2 miENE (70°)15.0 mphScattered Clouds
1:30 PM82.4 °F69.8 °F66 %29.98 in6.2 miENE (70°)13.8 mphScattered Clouds
2:00 PM84.0 °F71.0 °F56 %29.97 in7.0 miENE (70°)10.4 mphPartly Cloudy
2:00 PM84.2 °F71.6 °F66 %29.95 in6.2 miENE (70°)10.4 mphScattered Clouds
2:30 PM82.4 °F71.6 °F70 %29.95 in6.2 miENE (70°)10.4 mphMostly Cloudy
3:00 PM80.6 °F71.6 °F74 %29.95 in6.2 miENE (70°)9.2 mphMostly Cloudy
3:00 PM81.0 °F71.0 °F64 %29.96 in7.0 miENE (70°)9.2 mphMostly Cloudy
3:30 PM82.4 °F71.6 °F70 %29.95 in6.2 miENE (70°)8.1 mphMostly Cloudy
4:00 PM81.0 °F71.0 °F63 %29.95 in6.0 miEast (80°)8.1 mphMostly Cloudy
4:00 PM80.6 °F69.8 °F70 %29.95 in6.2 miEast (80°)8.1 mphMostly Cloudy
4:30 PM80.6 °F71.6 °F74 %29.95 in6.2 miEast (80°)8.1 mphMostly Cloudy
5:00 PM80.0 °F71.0 °F66 %29.96 in6.0 miEast (80°)8.1 mphMostly Cloudy
5:00 PM80.6 °F71.6 °F74 %29.95 in6.2 miEast (80°)8.1 mphMostly Cloudy
5:30 PM78.8 °F71.6 °F78 %29.95 in6.2 miEast (80°)6.9 mphMostly Cloudy
6:00 PM78.8 °F71.6 °F78 %29.95 in6.2 miEast (80°)6.9 mphMostly Cloudy
6:00 PM78.0 °F71.0 °F72 %29.97 in6.0 miEast (80°)6.9 mphMostly Cloudy
6:30 PM78.8 °F71.6 °F78 %29.98 in6.2 miEast (90°)5.8 mphMostly Cloudy
7:00 PM77.0 °F69.8 °F78 %29.98 in6.2 miEast (90°)5.8 mphMostly Cloudy
7:30 PM77.0 °F69.8 °F78 %30.01 in6.2 miEast (100°)6.9 mphScattered Clouds
8:00 PM76.0 °F70.0 °F75 %30.01 in6.0 miSE (140°)5.8 mphPartly Cloudy
8:00 PM75.2 °F69.8 °F83 %30.01 in6.2 miSE (140°)5.8 mphPartly Cloudy
8:30 PM75.2 °F69.8 °F83 %30.01 in6.2 miSSE (150°)6.9 mphScattered Clouds
9:00 PM75.2 °F69.8 °F83 %30.01 in6.2 miSouth (190°)4.6 mphPartly Cloudy
9:00 PM75.0 °F69.0 °F76 %30.02 in6.0 miSouth (190°)4.6 mphPartly Cloudy
9:30 PM73.4 °F66.2 °F78 %30.01 in6.2 miSouth (170°)4.6 mphPartly Cloudy
10:00 PM74.0 °F67.0 °F73 %30.03 in6.0 miSouth (170°)6.9 mphScattered Clouds
10:00 PM73.4 °F68.0 °F83 %30.01 in6.2 miSouth (170°)6.9 mphPartly Cloudy
10:30 PM73.4 °F66.2 °F78 %30.01 in6.2 miSouth (180°)6.9 mphPartly Cloudy
11:00 PM73.0 °F66.0 °F74 %30.02 in6.0 miSouth (180°)4.6 mphScattered Clouds
11:00 PM73.4 °F66.2 °F78 %30.01 in6.2 miSouth (180°)4.6 mphPartly Cloudy
11:30 PM71.6 °F66.2 °F83 %30.01 in6.2 miSSE (160°)4.6 mph
Hourly data recorded from FMEE, located miles away from St.-Denis, Reunion







STORIES FROM OUR PARTNERS